Probability
0 0 3 3 3 3 3 3 0 0 0 0 0 0 0 0 0 0 3 0 0 0 0 0 0 0 0 0 0 0 0 0 0 0 0 0 0 0 0 0 0 0 0
0 0 3 3 3 3 3 3 0 0 0 0 0 0 0 0 0 0 0 0 0 0 0 0 0 0 0 0 0 0 0 0 0 0 0 0 0 0 0 0 0 0 0
0 0 3 3 3 3 3 3 0 0 0 0 0 0 0 0 0 0 0 0 0 0 0 0 0 0 0 0 0 0 0 0 0 0 0 0 0 0 0 0 0 0 0
0 0 3 3 3 3 3 3 0 0 0 0 0 0 0 0 0 0 0 0 0 0 0 0 0 0 0 0 0 0 0 0 0 0 0 0 0 0 0 0 0 0 0
0 0 3 3 3 3 3 3 0 0 0 0 0 0 0 0 0 0 0 0 0 0 0 0 0 0 0 0 0 0 0 0 0 0 0 0 0 0 0 0 0 0 0
0 0 3 3 3 3 3 3 0 0 0 0 0 0 0 0 0 0 0 0 0 0 0 0 0 0 0 0 0 0 0 0 0 0 0 0 0 0 0 0 0 0 0
0 0 0 3 3 3 3 0 0 0 0 0 0 0 0 0 0 0 0 0 0 0 0 0 0 0 0 0 0 0 0 0 0 0 0 0 0 0 0 0 0 0 0
0 0 0 3 3 3 3 0 0 0 0 0 0 0 0 0 0 0 0 0 0 0 0 0 0 0 0 0 0 0 0 0 0 0 0 0 0 0 0 0 0 0 0
0 0 0 0 3 3 0 0 0 0 0 0 0 0 0 0 0 0 0 0 0 0 0 0 0 0 0 0 0 0 0 0 0 0 0 0 0 0 0 0 0 0 0
0 0 0 0 0 0 0 0 0 0 0 0 0 0 0 0 0 0 0 0 0 0 0 0 0 0 0 0 0 0 0 0 0 0 0 0 0 0 0 0 0 0 0
0 0 0 0 0 0 0 0 0 0 0 0 0 0 0 0 0 0 0 0 0 0 0 0 0 0 0 0 0 0 0 0 0 0 0 0 0 0 0 0 0 0 0
0 0 0 0 0 0 0 0 0 0 0 0 0 0 0 0 0 0 0 0 0 0 0 0 0 0 0 0 0 0 0 0 0 0 0 0 0 0 0 0 0 0 0
0 0 0 0 0 0 0 0 0 0 0 0 0 0 0 0 0 0 0 0 0 0 0 0 0 0 0 0 0 0 0 0 0 0 0 0 0 0 0 0 0 0 0
0 0 0 0 0 0 0 0 0 0 0 0 0 0 0 0 0 0 0 0 0 0 0 0 0 0 0 0 0 0 0 0 0 0 0 0 0 0 0 0 0 0 0
0 0 0 0 0 0 0 0 0 0 0 0 0 0 0 0 0 0 0 0 0 0 0 0 0 0 0 0 0 0 0 0 0 0 0 0 0 0 0 0 0 0 0
0 0 0 0 0 0 0 0 0 0 0 0 0 0 0 0 0 0 0 0 0 0 0 0 0 0 0 0 0 0 0 0 0 0 0 0 0 0 0 0 0 0 0
0 0 0 0 0 0 0 0 0 0 0 0 0 0 0 0 0 0 0 0 0 0 0 0 0 0 0 0 0 0 0 0 0 0 0 0 0 0 0 0 0 0 0
0 0 0 0 0 0 0 0 0 0 0 0 0 0 0 0 0 0 0 0 0 0 0 0 0 0 0 0 0 0 0 0 0 0 0 0 0 0 0 0 0 0 0
0 0 0 0 0 0 0 0 0 0 0 0 0 0 0 0 0 0 0 0 0 0 0 0 0 0 0 0 0 0 0 0 0 0 0 0 0 0 0 0 0 0 0
0 0 0 0 0 0 0 0 0 0 0 0 0 0 0 0 0 0 0 0 0 0 0 0 0 0 0 0 0 0 0 0 0 0 0 0 0 0 0 0 0 0 0
0 0 0 0 0 0 0 0 0 0 0 0 0 0 0 0 0 0 0 0 0 0 0 0 0 0 0 0 0 0 0 0 0 0 0 0 0 0 0 0 0 0 0
0 0 0 0 0 0 0 0 0 0 0 0 0 0 0 0 0 0 0 0 0 0 0 0 0 0 0 0 0 0 0 0 0 0 0 0 0 0 0 0 0 0 0
0 0 0 0 0 0 0 0 0 0 0 0 0 0 0 0 0 0 0 0 0 0 0 0 0 0 0 0 0 0 0 0 0 0 0 0 0 0 0 0 0 0 0
0 0 0 0 0 0 0 0 0 0 0 0 0 0 0 0 0 0 0 0 0 0 0 0 0 0 0 0 0 0 0 0 0 0 0 0 0 0 0 0 0 0 0
0 0 0 0 0 0 0 0 0 0 0 0 0 0 0 0 0 0 0 0 0 0 0 0 0 0 0 0 0 0 0 0 0 0 0 0 0 0 0 0 0 0 0
0 0 0 0 0 0 0 0 0 0 0 0 0 0 0 0 0 0 0 0 0 0 0 0 0 0 0 0 0 0 0 0 0 0 0 0 0 0 0 0 0 0 0
Height
5862 5864 5865 5867 5868 5869 5871 5872 5872 5873 5874 5874 5874 5875 5875 5876 5876 5876 5877 5877 5877 5877 5877 5877 5877 5876 5876 5876 5875 5874 5874 5873 5873 5872 5871 5870 5869 5869 5868 5867 5866 5865 5864
5860 5861 5863 5865 5866 5867 5868 5870 5870 5871 5872 5872 5873 5873 5874 5874 5874 5875 5875 5875 5875 5875 5875 5875 5875 5874 5874 5873 5873 5872 5872 5871 5870 5869 5869 5868 5867 5866 5865 5864 5863 5862 5861
5857 5859 5861 5862 5864 5865 5866 5867 5868 5869 5870 5871 5871 5872 5872 5872 5873 5873 5873 5874 5874 5874 5874 5873 5873 5872 5872 5871 5871 5870 5869 5868 5868 5867 5866 5865 5864 5863 5862 5861 5860 5859 5857
5855 5856 5858 5860 5861 5863 5864 5865 5866 5867 5868 5869 5869 5870 5870 5871 5871 5871 5872 5872 5872 5872 5871 5871 5871 5870 5870 5869 5868 5868 5867 5866 5865 5864 5863 5862 5861 5860 5859 5857 5856 5855 5853
5852 5854 5855 5857 5859 5860 5861 5863 5864 5865 5866 5867 5867 5868 5868 5869 5869 5869 5870 5870 5870 5870 5869 5869 5869 5868 5867 5867 5866 5865 5864 5863 5862 5861 5860 5859 5858 5856 5855 5854 5852 5851 5849
5849 5851 5852 5854 5856 5857 5859 5860 5861 5863 5863 5864 5865 5866 5866 5866 5867 5867 5868 5868 5868 5868 5867 5867 5866 5866 5865 5864 5863 5862 5861 5860 5859 5858 5857 5855 5854 5853 5851 5849 5848 5846 5845
5845 5847 5849 5851 5853 5855 5856 5858 5859 5860 5861 5862 5863 5863 5864 5864 5865 5865 5866 5866 5866 5865 5865 5864 5864 5863 5862 5861 5860 5859 5858 5857 5856 5854 5853 5852 5850 5849 5847 5845 5843 5842 5840
5842 5844 5846 5848 5850 5852 5853 5855 5856 5857 5858 5859 5860 5861 5862 5862 5863 5863 5863 5863 5863 5863 5862 5862 5861 5860 5860 5858 5857 5856 5855 5853 5852 5851 5849 5848 5846 5844 5842 5841 5839 5837 5835
5839 5841 5843 5845 5847 5849 5850 5852 5853 5855 5856 5857 5858 5859 5859 5860 5860 5860 5861 5861 5860 5860 5859 5859 5858 5857 5856 5855 5854 5852 5851 5850 5848 5847 5845 5843 5842 5840 5838 5836 5834 5832 5830
5835 5837 5840 5842 5844 5846 5847 5849 5850 5852 5853 5854 5855 5856 5857 5857 5858 5858 5858 5858 5857 5857 5856 5856 5855 5854 5853 5851 5850 5849 5847 5845 5844 5842 5841 5839 5837 5835 5833 5831 5828 5826 5824
5831 5834 5836 5839 5841 5843 5844 5846 5848 5849 5850 5851 5852 5853 5854 5854 5855 5855 5854 5854 5854 5853 5853 5852 5851 5850 5849 5847 5846 5844 5843 5841 5839 5838 5836 5834 5832 5830 5827 5825 5823 5821 5818
5828 5830 5833 5835 5837 5839 5841 5843 5845 5846 5847 5848 5849 5850 5850 5851 5851 5851 5851 5851 5850 5850 5849 5848 5847 5846 5845 5843 5841 5840 5838 5836 5835 5833 5831 5829 5826 5824 5822 5819 5817 5814 5812
5824 5827 5829 5832 5834 5836 5838 5840 5841 5843 5844 5845 5846 5846 5847 5847 5847 5847 5847 5847 5846 5846 5845 5844 5843 5841 5840 5838 5836 5835 5833 5831 5829 5827 5825 5823 5820 5818 5815 5813 5810 5808 5805
5821 5823 5826 5828 5831 5833 5835 5836 5838 5839 5840 5841 5842 5843 5843 5843 5843 5843 5843 5843 5842 5842 5840 5839 5838 5837 5835 5833 5831 5829 5827 5825 5823 5821 5819 5816 5814 5812 5809 5806 5803 5801 5798
5817 5820 5822 5824 5827 5829 5831 5832 5834 5835 5836 5837 5838 5839 5839 5839 5839 5839 5839 5838 5838 5837 5836 5834 5833 5832 5830 5828 5826 5824 5822 5820 5817 5815 5813 5810 5808 5805 5802 5799 5797 5794 5791
5813 5815 5818 5820 5822 5825 5827 5828 5830 5831 5832 5833 5834 5834 5835 5835 5835 5834 5834 5833 5833 5832 5830 5829 5828 5826 5824 5822 5820 5818 5816 5813 5811 5809 5806 5804 5801 5798 5795 5792 5789 5786 5783
5808 5811 5813 5816 5818 5820 5822 5824 5825 5827 5828 5828 5829 5830 5830 5830 5830 5829 5829 5828 5827 5826 5825 5823 5822 5820 5818 5816 5814 5812 5809 5807 5805 5802 5800 5797 5794 5791 5788 5785 5782 5779 5776
5803 5806 5808 5811 5813 5815 5817 5819 5821 5822 5823 5824 5824 5824 5824 5824 5824 5824 5823 5822 5821 5820 5819 5817 5816 5814 5812 5810 5808 5805 5803 5801 5798 5796 5793 5790 5787 5784 5781 5778 5775 5771 5768
5797 5800 5803 5806 5808 5810 5812 5814 5816 5817 5818 5818 5819 5819 5819 5819 5818 5818 5817 5816 5815 5814 5812 5811 5809 5807 5805 5803 5801 5799 5796 5794 5791 5789 5786 5783 5780 5777 5774 5771 5767 5764 5760
5790 5793 5797 5800 5802 5804 5806 5808 5810 5811 5812 5812 5813 5813 5813 5812 5812 5812 5811 5810 5809 5807 5806 5804 5802 5801 5799 5797 5794 5792 5790 5787 5784 5782 5779 5776 5773 5770 5766 5763 5760 5756 5752
5784 5787 5790 5793 5796 5798 5800 5802 5804 5805 5806 5806 5807 5807 5807 5806 5806 5805 5804 5803 5802 5801 5799 5797 5796 5794 5792 5790 5787 5785 5783 5780 5777 5775 5772 5769 5766 5762 5759 5755 5752 5748 5744
5777 5780 5784 5787 5789 5791 5794 5795 5797 5798 5799 5800 5800 5800 5800 5799 5799 5798 5797 5796 5795 5794 5792 5790 5788 5786 5784 5782 5780 5778 5776 5774 5770 5767 5764 5761 5758 5755 5751 5747 5744 5740 5736
5770 5773 5776 5779 5781 5784 5786 5787 5789 5790 5791 5793 5793 5793 5792 5792 5792 5791 5790 5789 5788 5786 5785 5783 5781 5779 5777 5775 5773 5771 5769 5766 5763 5760 5757 5754 5750 5747 5743 5739 5735 5732 5728
5761 5765 5768 5771 5773 5776 5777 5779 5781 5783 5784 5785 5785 5785 5785 5784 5784 5783 5782 5781 5780 5778 5777 5775 5773 5772 5770 5768 5765 5763 5761 5758 5756 5753 5749 5746 5742 5739 5735 5731 5727 5723 5719
5751 5755 5759 5762 5765 5767 5769 5772 5773 5775 5776 5776 5776 5776 5776 5776 5776 5775 5774 5773 5772 5770 5769 5767 5766 5764 5762 5760 5758 5755 5753 5750 5747 5744 5742 5738 5734 5730 5727 5723 5719 5714 5710
5741 5745 5749 5752 5755 5758 5760 5763 5765 5766 5767 5767 5768 5768 5768 5768 5768 5767 5766 5765 5764 5762 5761 5759 5758 5756 5754 5752 5750 5747 5744 5742 5739 5736 5733 5730 5726 5722 5718 5714 5710 5705 5701
Wind_Speed
17 16 15 14 13 12 12 11 10 10 10 9 9 8 8 7 7 7 7 8 9 9 10 11 12 12 12 13 14 14 14 14 14 15 15 16 17 17 17 18 18 19 19
18 17 16 15 15 14 13 12 12 11 11 10 9 9 8 8 8 8 8 9 10 10 11 12 12 13 13 14 14 14 14 14 15 15 16 16 17 17 18 18 19 19 20
19 18 17 17 16 15 14 13 13 12 11 10 10 9 9 8 9 9 10 10 11 12 12 13 13 14 14 15 14 14 15 15 16 16 17 17 18 19 19 20 20 21 21
20 19 18 17 17 16 15 14 13 12 12 11 10 10 9 9 10 11 11 11 11 12 12 13 13 14 14 15 15 15 16 16 17 17 18 19 19 20 21 21 22 23 23
21 21 20 19 18 17 16 15 14 13 12 12 11 11 11 11 11 11 11 11 11 12 12 13 14 14 15 15 16 16 17 18 18 19 20 20 21 22 22 23 24 24 25
22 21 21 20 19 17 16 16 15 14 13 13 12 11 11 11 10 10 10 11 11 12 13 14 14 15 16 16 17 18 19 19 20 20 21 22 22 23 24 24 25 26 27
22 21 21 20 19 18 17 16 15 15 14 13 12 11 11 10 10 10 11 11 12 13 14 15 15 16 17 18 19 19 20 20 21 21 22 23 24 25 25 26 26 27 28
21 21 20 20 19 18 17 16 16 15 14 13 12 11 11 11 11 11 12 13 14 14 15 16 16 17 18 19 20 20 21 22 22 23 23 24 25 25 26 27 28 28 29
22 21 21 20 19 19 18 17 16 15 14 13 12 12 12 12 12 13 13 14 15 15 16 16 17 18 19 20 21 22 22 23 24 24 25 25 26 27 27 28 29 30 31
22 22 21 20 20 19 19 17 16 15 14 13 13 13 13 13 13 14 14 15 15 16 16 17 18 19 20 21 22 23 23 24 25 26 26 27 27 28 29 30 31 31 32
22 22 22 21 20 19 18 17 16 15 14 14 13 13 13 14 14 14 15 15 16 16 17 18 19 21 22 22 23 24 25 25 26 27 28 29 29 30 31 31 32 33 33
22 22 22 21 20 19 18 17 16 15 14 14 14 14 14 14 15 15 15 16 17 18 19 20 21 23 24 24 25 26 26 27 28 29 29 30 31 32 32 33 34 34 35
22 21 21 20 20 19 18 17 16 16 15 15 15 15 15 15 15 15 16 17 18 19 21 22 23 24 25 26 27 27 28 29 29 30 31 32 33 33 34 35 35 35 36
22 22 21 20 20 19 18 18 17 17 16 16 16 15 15 16 16 17 18 18 20 21 23 24 25 26 27 27 28 29 29 30 31 32 33 33 34 34 35 36 36 37 37
23 22 21 21 20 20 19 19 18 17 17 17 16 16 16 17 18 19 20 21 22 23 25 26 26 27 28 29 29 30 31 31 32 33 34 34 35 35 36 37 37 38 38
24 24 23 22 21 21 20 20 19 18 18 18 18 18 18 19 20 21 22 23 24 25 26 27 28 29 29 30 31 31 32 32 33 34 35 35 36 36 37 38 38 39 39
26 25 24 23 22 22 21 21 20 20 20 19 19 20 20 21 22 23 24 25 26 27 28 29 29 30 30 31 31 32 33 34 34 35 36 36 37 38 38 38 39 40 40
28 27 26 25 24 24 23 22 22 21 21 21 21 22 22 23 24 25 26 27 28 29 29 30 31 31 32 32 33 34 34 35 35 36 36 37 38 39 39 39 39 40 41
30 29 28 27 26 26 25 24 24 23 23 23 23 24 25 25 26 27 28 29 29 30 31 31 32 33 33 33 34 34 35 36 36 36 37 38 39 39 39 40 40 41 42
33 32 30 29 28 28 27 26 26 26 25 25 25 26 27 27 28 29 30 30 30 31 32 32 33 34 34 34 34 35 36 36 37 37 38 39 40 40 40 41 41 42 42
34 33 32 31 30 30 29 29 29 29 29 28 28 28 29 30 31 31 31 31 32 32 33 33 34 35 35 35 35 36 37 37 37 38 38 40 40 40 41 41 42 43 43
35 34 34 33 33 32 32 32 32 32 31 30 30 31 31 32 32 32 33 33 34 34 34 35 35 35 36 36 36 37 37 38 38 38 39 40 41 41 42 42 43 43 43
37 36 35 35 35 34 35 35 35 34 33 32 33 33 34 34 34 34 35 35 35 35 36 36 36 36 36 37 37 37 38 38 38 39 40 41 42 42 42 42 43 43 44
39 39 38 37 37 37 37 37 36 35 35 35 36 36 36 35 35 36 36 36 37 37 36 36 37 37 37 38 38 39 39 39 39 40 41 41 42 42 42 42 43 44 44
42 41 40 40 40 39 39 38 38 37 37 37 38 38 38 37 37 37 38 38 38 38 37 37 37 37 38 38 39 39 39 40 40 41 41 41 42 42 42 43 44 44 44
44 43 43 42 41 40 40 39 39 39 39 39 39 39 39 39 39 39 39 39 39 39 38 38 38 38 38 39 39 40 40 41 41 41 41 42 42 42 43 44 44 45 45
Wind_Direction
225 226 225 226 227 227 229 234 239 245 250 256 260 266 272 277 283 291 296 300 304 308 311 312 311 311 310 310 311 311 311 310 309 309 308 307 306 305 304 302 301 299 298
228 229 229 229 229 232 235 239 243 249 253 256 259 264 269 275 282 289 295 298 302 306 308 308 309 310 309 309 309 309 309 310 309 309 309 308 307 305 304 303 301 299 298
230 230 230 230 232 235 238 242 245 248 251 254 259 264 269 275 281 288 293 297 299 302 305 306 307 308 308 309 310 310 310 310 309 308 308 307 306 305 303 302 301 299 298
231 231 230 231 234 236 239 242 245 247 249 252 257 263 269 275 280 286 291 295 298 301 304 306 308 308 309 309 309 309 309 309 308 307 306 306 305 304 303 301 300 299 298
231 232 232 234 235 237 238 240 243 245 248 252 258 264 269 275 280 285 290 294 299 302 305 306 308 308 307 307 307 306 306 306 305 305 305 305 303 302 301 300 300 299 297
232 233 234 235 236 236 237 239 242 245 248 253 258 262 268 274 279 285 290 294 298 301 303 304 305 306 305 305 304 305 304 304 303 303 303 303 303 302 301 300 299 298 298
232 234 235 234 234 235 236 238 241 243 248 252 255 260 265 270 277 283 288 291 295 298 301 302 303 304 304 303 303 303 303 302 302 302 302 302 302 301 301 300 299 298 297
232 233 233 231 231 232 234 237 241 244 247 249 252 259 264 269 275 281 286 290 294 297 299 301 302 303 303 303 303 302 302 302 301 301 301 301 301 301 300 299 298 298 297
231 231 230 229 229 231 235 237 240 240 243 246 252 259 265 271 276 282 285 289 293 296 298 300 302 303 303 303 303 302 302 302 301 301 300 300 300 300 299 298 298 297 297
230 229 228 228 230 232 234 235 235 238 242 246 254 261 267 272 277 281 285 289 293 296 299 300 302 303 304 303 303 302 301 301 301 300 300 300 299 299 299 299 298 298 297
229 227 226 227 228 229 231 232 234 237 242 248 255 262 268 272 277 282 286 290 294 297 300 301 302 303 303 303 303 302 301 301 301 300 300 300 299 299 299 299 299 299 298
225 224 224 224 225 226 228 230 234 239 244 250 256 263 268 272 278 283 287 291 295 297 299 300 302 303 303 303 303 302 302 301 301 300 300 300 300 299 299 299 299 299 298
221 220 221 223 224 225 228 232 237 242 246 252 259 265 269 274 279 283 288 292 295 298 299 301 302 302 303 303 302 302 302 302 301 301 301 300 300 299 299 300 299 299 298
218 219 220 222 224 226 230 234 239 243 249 255 261 266 270 274 279 283 288 292 295 297 299 301 301 302 303 303 302 302 302 302 302 301 301 300 300 300 300 300 300 300 299
218 220 222 224 227 230 234 238 241 245 250 256 262 266 271 275 279 284 288 291 293 296 298 300 300 301 302 302 302 302 302 302 302 301 301 301 300 301 301 301 301 301 300
221 223 225 228 231 234 236 238 242 246 251 257 263 268 273 277 281 285 288 290 293 295 297 299 300 301 302 301 301 301 301 301 302 302 301 301 301 302 302 302 302 301 301
225 226 229 231 233 236 238 240 244 249 254 259 263 269 274 279 283 285 288 290 292 294 297 298 299 300 301 301 301 301 301 301 301 302 302 302 302 303 303 303 303 302 302
227 229 231 233 236 238 241 243 247 251 255 260 265 270 275 279 282 285 287 290 292 294 296 297 298 299 300 300 300 300 301 301 301 302 302 302 303 303 304 303 303 303 303
229 231 232 235 237 240 243 246 249 253 258 263 267 271 275 279 282 284 287 290 292 294 295 296 297 298 299 299 299 300 301 301 301 302 302 302 303 304 304 304 304 304 303
230 232 234 237 240 243 246 249 252 256 260 264 268 271 274 278 281 283 286 289 292 293 295 296 296 297 298 298 298 299 300 301 301 301 302 303 304 304 304 304 304 304 304
232 234 237 239 242 246 249 251 255 258 261 265 268 271 275 278 280 283 286 288 290 291 292 294 295 296 296 297 298 299 299 300 300 301 302 303 304 304 304 304 304 304 304
234 236 238 241 244 247 250 252 256 259 262 265 268 271 274 277 279 282 284 286 288 290 291 292 294 295 295 296 297 298 298 299 299 300 301 303 304 304 304 305 305 305 305
237 239 241 243 246 248 251 254 257 260 263 266 268 270 273 275 278 280 283 285 287 288 289 291 292 293 294 295 296 297 298 298 298 299 300 302 303 304 304 305 305 305 306
240 241 243 245 247 250 252 255 257 260 262 264 266 269 272 274 276 279 282 284 285 286 288 289 291 292 293 294 295 296 297 298 298 299 300 302 303 303 305 305 306 306 306
242 244 246 247 249 251 253 256 258 260 262 264 266 269 271 273 275 278 280 281 283 284 286 288 289 291 292 293 294 295 297 298 299 299 300 302 303 303 305 306 307 307 307
243 245 247 248 250 252 254 256 258 260 262 263 265 268 270 272 274 276 278 280 281 283 284 286 288 290 291 292 293 295 297 298 298 299 300 302 303 304 305 306 307 307 307